QPF
0.00 0.00 0.00 0.00 0.00 0.00 0.00 0.00 0.00 0.00 0.00 0.00 0.00 0.00 0.00 0.00 0.00 0.00 0.00 0.00 0.00 0.00 0.00 0.00 0.00 0.00 0.00 0.00 0.01 0.01 0.01 0.02 0.04 0.05 0.04 0.04 0.05 0.04 0.05 0.06 0.06 0.05 0.06 0.06
0.00 0.00 0.00 0.00 0.00 0.00 0.00 0.00 0.00 0.00 0.00 0.00 0.00 0.00 0.00 0.00 0.00 0.00 0.00 0.00 0.00 0.00 0.00 0.00 0.00 0.00 0.00 0.00 0.01 0.01 0.02 0.02 0.03 0.04 0.06 0.06 0.07 0.07 0.08 0.08 0.09 0.09 0.07 0.07
0.00 0.00 0.00 0.00 0.00 0.00 0.00 0.00 0.00 0.00 0.00 0.00 0.00 0.00 0.00 0.00 0.00 0.00 0.00 0.00 0.00 0.00 0.00 0.00 0.00 0.00 0.00 0.00 0.01 0.01 0.02 0.03 0.05 0.05 0.07 0.07 0.08 0.09 0.10 0.11 0.11 0.10 0.09 0.07
0.00 0.00 0.00 0.00 0.00 0.00 0.00 0.00 0.00 0.00 0.00 0.00 0.00 0.00 0.00 0.00 0.00 0.00 0.00 0.00 0.00 0.00 0.00 0.00 0.00 0.00 0.00 0.01 0.01 0.02 0.03 0.03 0.05 0.08 0.09 0.09 0.07 0.09 0.15 0.14 0.11 0.10 0.11 0.10
0.00 0.00 0.00 0.00 0.00 0.00 0.00 0.00 0.00 0.00 0.00 0.00 0.00 0.01 0.00 0.00 0.00 0.00 0.00 0.00 0.00 0.00 0.00 0.00 0.00 0.00 0.01 0.01 0.02 0.02 0.02 0.02 0.04 0.05 0.07 0.11 0.11 0.10 0.17 0.16 0.10 0.10 0.10 0.11
0.00 0.00 0.00 0.00 0.00 0.00 0.00 0.00 0.00 0.00 0.00 0.00 0.00 0.00 0.00 0.01 0.01 0.00 0.00 0.00 0.00 0.00 0.00 0.00 0.01 0.01 0.01 0.01 0.02 0.02 0.03 0.02 0.03 0.04 0.04 0.05 0.09 0.09 0.10 0.11 0.09 0.08 0.09 0.10
0.00 0.00 0.00 0.00 0.00 0.00 0.00 0.00 0.00 0.00 0.00 0.00 0.00 0.00 0.01 0.01 0.01 0.00 0.00 0.00 0.00 0.01 0.01 0.03 0.02 0.01 0.01 0.01 0.01 0.01 0.03 0.03 0.03 0.05 0.04 0.05 0.07 0.08 0.07 0.08 0.07 0.06 0.07 0.10
0.00 0.00 0.00 0.00 0.00 0.00 0.00 0.00 0.00 0.00 0.00 0.00 0.00 0.00 0.01 0.01 0.01 0.00 0.00 0.00 0.01 0.01 0.01 0.01 0.01 0.01 0.01 0.01 0.01 0.02 0.02 0.03 0.04 0.05 0.06 0.06 0.07 0.11 0.10 0.11 0.10 0.07 0.06 0.08
0.00 0.00 0.00 0.00 0.00 0.00 0.00 0.00 0.00 0.01 0.01 0.00 0.00 0.00 0.01 0.01 0.02 0.01 0.00 0.00 0.00 0.00 0.00 0.00 0.00 0.00 0.01 0.01 0.02 0.02 0.03 0.03 0.05 0.06 0.09 0.09 0.08 0.11 0.12 0.13 0.11 0.09 0.07 0.06
0.00 0.00 0.00 0.00 0.00 0.00 0.00 0.00 0.01 0.01 0.01 0.00 0.00 0.01 0.02 0.03 0.03 0.02 0.01 0.00 0.00 0.00 0.00 0.00 0.00 0.00 0.01 0.01 0.02 0.03 0.03 0.03 0.04 0.05 0.06 0.07 0.09 0.11 0.13 0.15 0.11 0.09 0.07 0.06
0.00 0.00 0.00 0.00 0.00 0.00 0.00 0.00 0.01 0.01 0.01 0.01 0.01 0.01 0.02 0.04 0.04 0.03 0.01 0.00 0.00 0.00 0.00 0.00 0.00 0.00 0.01 0.02 0.03 0.04 0.04 0.04 0.04 0.03 0.04 0.05 0.08 0.09 0.12 0.15 0.15 0.12 0.08 0.06
0.00 0.00 0.00 0.00 0.00 0.00 0.00 0.00 0.01 0.02 0.01 0.01 0.01 0.01 0.01 0.04 0.04 0.02 0.01 0.00 0.00 0.01 0.01 0.00 0.00 0.01 0.03 0.04 0.05 0.05 0.06 0.05 0.04 0.03 0.03 0.05 0.07 0.07 0.07 0.08 0.10 0.13 0.13 0.08
0.01 0.01 0.01 0.00 0.00 0.00 0.00 0.00 0.01 0.01 0.01 0.01 0.01 0.01 0.01 0.03 0.04 0.02 0.01 0.01 0.01 0.01 0.00 0.01 0.01 0.02 0.04 0.07 0.06 0.06 0.07 0.06 0.04 0.04 0.04 0.05 0.06 0.06 0.06 0.05 0.06 0.10 0.12 0.10
0.03 0.03 0.02 0.00 0.00 0.00 0.00 0.00 0.00 0.00 0.01 0.01 0.01 0.01 0.01 0.03 0.06 0.04 0.02 0.02 0.01 0.01 0.01 0.01 0.03 0.04 0.06 0.09 0.08 0.09 0.10 0.08 0.06 0.06 0.06 0.06 0.06 0.07 0.06 0.05 0.06 0.10 0.11 0.09
0.04 0.04 0.03 0.01 0.00 0.00 0.00 0.00 0.00 0.00 0.01 0.01 0.01 0.01 0.01 0.02 0.03 0.04 0.03 0.03 0.02 0.02 0.02 0.02 0.04 0.06 0.08 0.10 0.10 0.12 0.13 0.09 0.07 0.07 0.07 0.06 0.06 0.07 0.06 0.05 0.05 0.09 0.08 0.07
0.04 0.04 0.02 0.01 0.00 0.00 0.00 0.00 0.00 0.00 0.00 0.00 0.00 0.01 0.02 0.01 0.01 0.01 0.01 0.02 0.02 0.03 0.03 0.04 0.05 0.06 0.10 0.11 0.12 0.15 0.15 0.11 0.07 0.05 0.05 0.05 0.04 0.06 0.06 0.05 0.04 0.07 0.06 0.05
0.04 0.04 0.03 0.01 0.00 0.01 0.01 0.00 0.00 0.00 0.00 0.00 0.01 0.01 0.02 0.03 0.02 0.01 0.01 0.01 0.01 0.03 0.04 0.05 0.06 0.09 0.13 0.12 0.14 0.15 0.14 0.12 0.07 0.05 0.04 0.03 0.03 0.04 0.05 0.05 0.04 0.05 0.06 0.07
0.04 0.04 0.04 0.03 0.01 0.03 0.01 0.00 0.00 0.00 0.00 0.00 0.00 0.01 0.02 0.03 0.02 0.02 0.02 0.02 0.03 0.05 0.05 0.06 0.08 0.13 0.13 0.12 0.10 0.10 0.10 0.10 0.07 0.05 0.03 0.03 0.04 0.04 0.05 0.05 0.04 0.04 0.04 0.06
0.03 0.05 0.07 0.05 0.03 0.01 0.00 0.00 0.00 0.00 0.00 0.00 0.00 0.00 0.01 0.02 0.01 0.01 0.02 0.02 0.04 0.05 0.06 0.08 0.10 0.12 0.10 0.07 0.05 0.05 0.06 0.05 0.05 0.04 0.04 0.04 0.04 0.04 0.04 0.04 0.03 0.03 0.04 0.04
0.03 0.06 0.10 0.08 0.05 0.02 0.00 0.00 0.00 0.00 0.00 0.00 0.00 0.00 0.00 0.01 0.01 0.01 0.01 0.02 0.03 0.04 0.05 0.07 0.08 0.07 0.05 0.04 0.04 0.04 0.04 0.04 0.03 0.04 0.04 0.04 0.03 0.03 0.03 0.03 0.03 0.03 0.04 0.04
0.07 0.10 0.12 0.08 0.05 0.02 0.00 0.00 0.00 0.00 0.00 0.00 0.00 0.00 0.00 0.00 0.01 0.01 0.02 0.01 0.01 0.02 0.03 0.05 0.04 0.04 0.04 0.03 0.03 0.03 0.03 0.04 0.04 0.03 0.03 0.04 0.04 0.03 0.02 0.03 0.03 0.03 0.04 0.04
0.06 0.09 0.09 0.07 0.07 0.03 0.01 0.01 0.01 0.01 0.00 0.00 0.00 0.00 0.00 0.00 0.00 0.01 0.01 0.01 0.01 0.01 0.01 0.02 0.02 0.02 0.03 0.03 0.03 0.02 0.02 0.03 0.03 0.02 0.02 0.02 0.03 0.04 0.04 0.03 0.03 0.03 0.04 0.04
0.07 0.10 0.09 0.07 0.05 0.03 0.01 0.01 0.01 0.00 0.00 0.00 0.00 0.00 0.00 0.00 0.00 0.01 0.01 0.00 0.00 0.01 0.01 0.01 0.02 0.01 0.01 0.02 0.02 0.01 0.01 0.02 0.02 0.02 0.02 0.02 0.02 0.03 0.03 0.03 0.03 0.03 0.04 0.04
0.05 0.06 0.06 0.06 0.04 0.02 0.02 0.01 0.01 0.01 0.01 0.00 0.00 0.00 0.00 0.00 0.00 0.00 0.01 0.01 0.00 0.00 0.00 0.01 0.01 0.01 0.01 0.01 0.01 0.00 0.00 0.01 0.01 0.02 0.02 0.02 0.02 0.02 0.03 0.03 0.03 0.03 0.03 0.03
0.04 0.04 0.05 0.05 0.03 0.02 0.02 0.01 0.01 0.01 0.01 0.01 0.01 0.00 0.00 0.00 0.00 0.00 0.00 0.00 0.01 0.00 0.00 0.01 0.01 0.01 0.01 0.01 0.01 0.00 0.00 0.00 0.01 0.01 0.01 0.02 0.02 0.02 0.02 0.03 0.03 0.03 0.03 0.03
0.02 0.04 0.06 0.05 0.04 0.03 0.03 0.02 0.02 0.02 0.02 0.02 0.02 0.02 0.01 0.01 0.01 0.00 0.00 0.00 0.00 0.00 0.00 0.01 0.01 0.01 0.01 0.01 0.01 0.00 0.01 0.01 0.01 0.01 0.01 0.02 0.02 0.02 0.03 0.03 0.03 0.03 0.03 0.04
MSLP
1012.10 1012.32 1012.46 1012.57 1012.68 1012.83 1013.02 1013.24 1013.46 1013.65 1013.75 1013.74 1013.63 1013.43 1013.20 1012.97 1012.81 1012.76 1012.84 1013.05 1013.37 1013.75 1014.15 1014.53 1014.86 1015.14 1015.36 1015.57 1015.77 1015.99 1016.25 1016.55 1016.86 1017.16 1017.42 1017.60 1017.68 1017.65 1017.51 1017.30 1017.04 1016.75 1016.48 1016.24
1011.98 1012.12 1012.19 1012.25 1012.36 1012.55 1012.81 1013.14 1013.47 1013.75 1013.91 1013.92 1013.79 1013.53 1013.21 1012.89 1012.66 1012.56 1012.63 1012.85 1013.21 1013.63 1014.07 1014.47 1014.80 1015.05 1015.24 1015.41 1015.58 1015.80 1016.08 1016.43 1016.82 1017.20 1017.53 1017.77 1017.88 1017.85 1017.70 1017.45 1017.14 1016.82 1016.52 1016.27
1011.75 1011.83 1011.85 1011.89 1012.02 1012.27 1012.64 1013.08 1013.52 1013.87 1014.08 1014.09 1013.90 1013.56 1013.13 1012.71 1012.39 1012.24 1012.29 1012.52 1012.92 1013.39 1013.88 1014.32 1014.67 1014.92 1015.10 1015.24 1015.40 1015.62 1015.93 1016.33 1016.77 1017.22 1017.61 1017.90 1018.05 1018.03 1017.87 1017.59 1017.26 1016.91 1016.59 1016.31
1011.44 1011.47 1011.47 1011.53 1011.72 1012.06 1012.54 1013.09 1013.63 1014.05 1014.27 1014.25 1013.98 1013.53 1012.98 1012.43 1012.01 1011.79 1011.81 1012.06 1012.49 1013.03 1013.58 1014.08 1014.47 1014.75 1014.94 1015.08 1015.25 1015.48 1015.80 1016.23 1016.71 1017.21 1017.65 1017.97 1018.15 1018.14 1017.98 1017.71 1017.36 1016.99 1016.65 1016.34
1011.07 1011.09 1011.11 1011.23 1011.50 1011.94 1012.54 1013.20 1013.82 1014.27 1014.49 1014.40 1014.04 1013.45 1012.76 1012.08 1011.54 1011.24 1011.23 1011.48 1011.95 1012.55 1013.18 1013.75 1014.21 1014.54 1014.77 1014.94 1015.12 1015.36 1015.70 1016.14 1016.64 1017.15 1017.62 1017.96 1018.16 1018.17 1018.03 1017.76 1017.41 1017.04 1016.68 1016.34
1010.67 1010.71 1010.78 1010.98 1011.36 1011.93 1012.63 1013.39 1014.07 1014.54 1014.71 1014.55 1014.07 1013.34 1012.49 1011.67 1011.02 1010.64 1010.58 1010.84 1011.34 1012.00 1012.71 1013.37 1013.92 1014.33 1014.61 1014.83 1015.04 1015.29 1015.63 1016.06 1016.56 1017.06 1017.52 1017.87 1018.07 1018.11 1017.99 1017.74 1017.41 1017.04 1016.67 1016.30
1010.23 1010.32 1010.47 1010.78 1011.29 1011.98 1012.80 1013.63 1014.34 1014.81 1014.93 1014.67 1014.06 1013.19 1012.20 1011.25 1010.49 1010.03 1009.93 1010.18 1010.71 1011.42 1012.21 1012.96 1013.61 1014.10 1014.47 1014.75 1015.00 1015.27 1015.60 1016.01 1016.47 1016.95 1017.38 1017.71 1017.91 1017.96 1017.86 1017.65 1017.34 1017.00 1016.62 1016.23
1009.73 1009.90 1010.17 1010.60 1011.24 1012.06 1012.97 1013.86 1014.59 1015.03 1015.08 1014.73 1014.00 1013.01 1011.90 1010.84 1009.99 1009.47 1009.32 1009.55 1010.10 1010.86 1011.72 1012.55 1013.29 1013.89 1014.34 1014.69 1014.98 1015.27 1015.60 1015.98 1016.39 1016.82 1017.20 1017.50 1017.69 1017.75 1017.68 1017.50 1017.23 1016.91 1016.54 1016.14
1009.17 1009.44 1009.84 1010.42 1011.19 1012.12 1013.10 1014.03 1014.75 1015.14 1015.13 1014.69 1013.87 1012.79 1011.60 1010.46 1009.55 1008.98 1008.80 1009.02 1009.57 1010.35 1011.26 1012.16 1012.98 1013.67 1014.21 1014.63 1014.98 1015.29 1015.61 1015.96 1016.33 1016.69 1017.02 1017.28 1017.45 1017.50 1017.45 1017.31 1017.08 1016.79 1016.44 1016.03
1008.52 1008.93 1009.47 1010.20 1011.09 1012.11 1013.15 1014.07 1014.76 1015.10 1015.02 1014.51 1013.64 1012.51 1011.28 1010.12 1009.18 1008.59 1008.39 1008.59 1009.14 1009.93 1010.85 1011.80 1012.68 1013.44 1014.06 1014.56 1014.96 1015.31 1015.63 1015.96 1016.28 1016.58 1016.85 1017.07 1017.20 1017.26 1017.22 1017.11 1016.92 1016.66 1016.33 1015.91
1007.84 1008.39 1009.09 1009.95 1010.94 1012.01 1013.06 1013.96 1014.59 1014.85 1014.71 1014.16 1013.26 1012.13 1010.92 1009.79 1008.88 1008.30 1008.10 1008.29 1008.82 1009.59 1010.51 1011.48 1012.39 1013.21 1013.89 1014.46 1014.92 1015.30 1015.64 1015.95 1016.24 1016.50 1016.71 1016.88 1016.99 1017.03 1017.00 1016.90 1016.74 1016.51 1016.20 1015.79
1007.16 1007.87 1008.71 1009.68 1010.75 1011.83 1012.84 1013.66 1014.20 1014.39 1014.19 1013.61 1012.73 1011.64 1010.51 1009.45 1008.62 1008.09 1007.92 1008.11 1008.62 1009.36 1010.25 1011.20 1012.12 1012.96 1013.70 1014.32 1014.83 1015.26 1015.62 1015.93 1016.20 1016.43 1016.60 1016.73 1016.81 1016.83 1016.80 1016.71 1016.56 1016.35 1016.04 1015.64
1006.57 1007.43 1008.40 1009.44 1010.52 1011.56 1012.48 1013.19 1013.61 1013.70 1013.43 1012.85 1012.01 1011.03 1010.01 1009.09 1008.37 1007.94 1007.83 1008.03 1008.52 1009.23 1010.07 1010.98 1011.88 1012.72 1013.48 1014.14 1014.70 1015.17 1015.57 1015.89 1016.16 1016.36 1016.51 1016.61 1016.66 1016.66 1016.61 1016.52 1016.38 1016.17 1015.87 1015.47
1006.13 1007.12 1008.17 1009.24 1010.28 1011.22 1012.00 1012.55 1012.82 1012.78 1012.46 1011.88 1011.12 1010.26 1009.41 1008.66 1008.11 1007.81 1007.78 1008.03 1008.51 1009.18 1009.97 1010.82 1011.68 1012.50 1013.26 1013.94 1014.53 1015.05 1015.47 1015.82 1016.09 1016.29 1016.43 1016.51 1016.53 1016.51 1016.45 1016.35 1016.19 1015.97 1015.67 1015.26
1005.89 1006.97 1008.05 1009.09 1010.02 1010.81 1011.39 1011.74 1011.83 1011.67 1011.28 1010.72 1010.05 1009.35 1008.70 1008.16 1007.81 1007.68 1007.76 1008.07 1008.56 1009.20 1009.94 1010.73 1011.53 1012.31 1013.05 1013.73 1014.35 1014.88 1015.34 1015.71 1016.00 1016.21 1016.34 1016.40 1016.41 1016.37 1016.29 1016.16 1015.99 1015.76 1015.44 1015.02
1005.84 1006.95 1008.00 1008.94 1009.72 1010.30 1010.65 1010.77 1010.67 1010.38 1009.94 1009.41 1008.85 1008.32 1007.89 1007.59 1007.46 1007.51 1007.74 1008.13 1008.65 1009.27 1009.97 1010.70 1011.44 1012.17 1012.88 1013.54 1014.15 1014.70 1015.18 1015.57 1015.87 1016.08 1016.22 1016.27 1016.27 1016.21 1016.11 1015.97 1015.78 1015.52 1015.18 1014.75
1005.93 1007.00 1007.95 1008.74 1009.31 1009.65 1009.76 1009.65 1009.37 1008.96 1008.48 1008.00 1007.56 1007.22 1007.01 1006.95 1007.06 1007.31 1007.69 1008.18 1008.75 1009.37 1010.04 1010.72 1011.40 1012.08 1012.74 1013.38 1013.97 1014.52 1014.99 1015.39 1015.70 1015.92 1016.06 1016.11 1016.10 1016.04 1015.92 1015.76 1015.54 1015.27 1014.91 1014.47
1006.05 1007.00 1007.80 1008.39 1008.73 1008.83 1008.70 1008.39 1007.95 1007.46 1006.98 1006.56 1006.26 1006.11 1006.12 1006.30 1006.62 1007.07 1007.61 1008.20 1008.83 1009.48 1010.13 1010.78 1011.41 1012.04 1012.65 1013.25 1013.82 1014.34 1014.80 1015.19 1015.49 1015.71 1015.85 1015.90 1015.89 1015.81 1015.69 1015.51 1015.28 1014.98 1014.61 1014.16
1006.05 1006.84 1007.44 1007.80 1007.92 1007.80 1007.48 1007.02 1006.48 1005.95 1005.50 1005.18 1005.03 1005.07 1005.29 1005.68 1006.21 1006.83 1007.51 1008.21 1008.90 1009.58 1010.23 1010.86 1011.46 1012.05 1012.62 1013.17 1013.69 1014.18 1014.61 1014.97 1015.26 1015.46 1015.59 1015.64 1015.62 1015.54 1015.40 1015.22 1014.97 1014.66 1014.29 1013.82
1005.80 1006.40 1006.78 1006.94 1006.86 1006.57 1006.12 1005.58 1005.02 1004.53 1004.16 1003.96 1003.97 1004.19 1004.60 1005.17 1005.86 1006.63 1007.42 1008.21 1008.96 1009.68 1010.34 1010.95 1011.54 1012.09 1012.62 1013.12 1013.60 1014.04 1014.42 1014.74 1015.00 1015.17 1015.28 1015.31 1015.28 1015.20 1015.06 1014.86 1014.61 1014.29 1013.91 1013.44
1005.22 1005.61 1005.80 1005.77 1005.56 1005.17 1004.68 1004.15 1003.66 1003.26 1003.03 1002.99 1003.17 1003.55 1004.12 1004.84 1005.65 1006.52 1007.39 1008.24 1009.03 1009.77 1010.44 1011.06 1011.63 1012.16 1012.65 1013.11 1013.54 1013.92 1014.25 1014.51 1014.72 1014.85 1014.92 1014.93 1014.89 1014.79 1014.64 1014.44 1014.18 1013.86 1013.47 1013.00
1004.30 1004.49 1004.51 1004.37 1004.08 1003.69 1003.25 1002.82 1002.47 1002.25 1002.20 1002.34 1002.69 1003.23 1003.92 1004.73 1005.62 1006.54 1007.45 1008.32 1009.14 1009.88 1010.56 1011.18 1011.74 1012.25 1012.71 1013.12 1013.49 1013.81 1014.07 1014.27 1014.42 1014.50 1014.53 1014.51 1014.44 1014.33 1014.17 1013.96 1013.69 1013.36 1012.97 1012.49
1003.07 1003.11 1003.02 1002.83 1002.56 1002.24 1001.94 1001.69 1001.55 1001.55 1001.71 1002.06 1002.57 1003.24 1004.02 1004.89 1005.81 1006.73 1007.64 1008.50 1009.30 1010.04 1010.71 1011.31 1011.86 1012.34 1012.77 1013.14 1013.45 1013.70 1013.89 1014.02 1014.10 1014.12 1014.10 1014.04 1013.95 1013.81 1013.64 1013.42 1013.15 1012.81 1012.41 1011.94
1001.70 1001.63 1001.50 1001.32 1001.12 1000.95 1000.84 1000.83 1000.94 1001.20 1001.60 1002.14 1002.81 1003.58 1004.43 1005.32 1006.22 1007.11 1007.96 1008.78 1009.54 1010.24 1010.89 1011.47 1011.99 1012.44 1012.83 1013.14 1013.39 1013.57 1013.69 1013.74 1013.75 1013.71 1013.65 1013.55 1013.43 1013.28 1013.09 1012.86 1012.58 1012.24 1011.83 1011.35
1000.35 1000.24 1000.11 1000.00 999.93 999.95 1000.07 1000.32 1000.70 1001.21 1001.84 1002.57 1003.37 1004.22 1005.10 1005.97 1006.82 1007.65 1008.43 1009.17 1009.87 1010.51 1011.11 1011.64 1012.12 1012.52 1012.86 1013.12 1013.30 1013.40 1013.44 1013.43 1013.37 1013.28 1013.17 1013.04 1012.90 1012.74 1012.55 1012.31 1012.03 1011.68 1011.27 1010.78
999.26 999.15 999.07 999.06 999.14 999.35 999.71 1000.20 1000.83 1001.57 1002.40 1003.28 1004.19 1005.09 1005.97 1006.80 1007.59 1008.32 1009.01 1009.66 1010.26 1010.83 1011.35 1011.83 1012.24 1012.59 1012.85 1013.04 1013.15 1013.18 1013.15 1013.07 1012.96 1012.82 1012.68 1012.54 1012.39 1012.23 1012.04 1011.82 1011.54 1011.19 1010.77 1010.28
Thickness
5603 5595 5594 5601 5603 5609 5609 5606 5607 5612 5616 5612 5611 5616 5623 5624 5620 5618 5615 5612 5612 5613 5614 5612 5611 5609 5607 5605 5605 5604 5604 5604 5603 5603 5602 5601 5601 5601 5600 5599 5599 5598 5599 5600
5590 5590 5602 5604 5603 5603 5603 5602 5603 5607 5609 5608 5607 5612 5620 5621 5620 5617 5613 5609 5608 5607 5605 5604 5603 5601 5599 5597 5597 5597 5596 5596 5595 5594 5594 5593 5592 5591 5590 5589 5588 5587 5588 5590
5587 5596 5603 5601 5598 5596 5597 5596 5598 5598 5599 5601 5599 5606 5616 5619 5617 5615 5610 5607 5604 5602 5598 5596 5594 5592 5591 5590 5589 5590 5588 5588 5586 5586 5585 5583 5581 5580 5578 5578 5578 5578 5578 5580
5583 5593 5597 5595 5594 5594 5590 5597 5595 5592 5584 5579 5585 5584 5608 5610 5608 5607 5603 5597 5595 5595 5592 5589 5587 5585 5584 5583 5582 5581 5580 5579 5578 5576 5574 5572 5571 5571 5570 5569 5568 5569 5569 5571
5581 5588 5590 5590 5592 5591 5586 5589 5587 5584 5576 5570 5574 5569 5593 5600 5599 5599 5596 5592 5590 5588 5586 5583 5581 5579 5578 5577 5575 5574 5572 5572 5570 5567 5564 5562 5560 5561 5561 5559 5559 5560 5561 5562
5575 5583 5585 5585 5586 5585 5581 5576 5571 5559 5555 5563 5573 5565 5584 5586 5595 5596 5592 5587 5585 5582 5580 5577 5574 5572 5570 5569 5568 5566 5565 5564 5563 5560 5557 5554 5551 5551 5551 5550 5550 5551 5551 5552
5567 5573 5577 5578 5574 5574 5571 5559 5552 5554 5545 5559 5569 5565 5579 5593 5593 5592 5589 5583 5578 5575 5571 5568 5566 5563 5562 5561 5561 5560 5559 5558 5556 5553 5549 5546 5543 5542 5542 5542 5541 5541 5541 5542
5553 5558 5567 5570 5570 5565 5561 5559 5553 5557 5552 5556 5562 5562 5583 5592 5592 5589 5585 5578 5573 5568 5564 5562 5560 5558 5556 5556 5555 5554 5554 5552 5549 5546 5543 5539 5537 5535 5535 5534 5534 5534 5534 5535
5549 5553 5561 5564 5565 5563 5555 5548 5551 5538 5539 5543 5551 5561 5578 5589 5586 5581 5576 5571 5566 5562 5559 5556 5555 5554 5552 5551 5550 5550 5548 5546 5543 5540 5537 5535 5532 5531 5530 5529 5528 5528 5528 5528
5548 5540 5550 5552 5555 5554 5553 5546 5533 5530 5535 5543 5550 5554 5565 5577 5574 5573 5568 5565 5561 5557 5553 5551 5551 5550 5548 5547 5546 5545 5543 5541 5538 5536 5533 5531 5529 5528 5526 5524 5524 5523 5522 5521
5541 5530 5531 5538 5541 5544 5542 5541 5533 5520 5523 5530 5537 5558 5575 5573 5571 5567 5564 5561 5557 5553 5549 5548 5547 5546 5544 5543 5541 5540 5538 5536 5534 5531 5529 5527 5526 5524 5523 5521 5519 5518 5517 5515
5533 5518 5514 5526 5535 5539 5540 5539 5528 5526 5519 5513 5519 5549 5577 5570 5566 5563 5558 5555 5552 5549 5546 5544 5543 5541 5540 5538 5537 5536 5534 5532 5530 5528 5525 5523 5521 5520 5518 5516 5515 5513 5511 5509
5524 5512 5511 5521 5522 5524 5528 5531 5527 5520 5510 5500 5508 5546 5568 5564 5560 5557 5553 5549 5546 5545 5542 5540 5538 5537 5536 5535 5534 5532 5531 5529 5527 5524 5522 5519 5517 5515 5512 5511 5510 5508 5506 5504
5520 5509 5519 5530 5531 5518 5515 5521 5520 5514 5506 5503 5516 5541 5557 5557 5552 5549 5546 5543 5540 5540 5539 5537 5535 5534 5533 5532 5531 5529 5528 5526 5524 5521 5518 5516 5513 5511 5509 5506 5505 5503 5501 5498
5508 5501 5505 5515 5519 5515 5518 5520 5517 5516 5515 5515 5528 5533 5550 5549 5544 5543 5540 5538 5537 5537 5536 5534 5532 5530 5529 5528 5527 5526 5524 5522 5520 5517 5515 5513 5509 5507 5505 5502 5499 5497 5495 5493
5490 5491 5494 5501 5509 5509 5512 5517 5517 5518 5521 5519 5524 5533 5547 5544 5539 5536 5534 5533 5534 5534 5533 5532 5531 5529 5526 5524 5523 5522 5520 5519 5517 5514 5512 5509 5506 5503 5500 5497 5494 5491 5489 5487
5475 5480 5484 5488 5496 5500 5504 5520 5518 5517 5520 5522 5525 5539 5539 5536 5534 5532 5530 5528 5528 5529 5529 5528 5527 5526 5523 5521 5520 5518 5515 5514 5513 5511 5508 5505 5502 5499 5496 5492 5488 5485 5483 5481
5469 5471 5469 5473 5481 5489 5524 5530 5527 5523 5524 5522 5528 5533 5534 5533 5530 5527 5526 5524 5524 5524 5523 5524 5522 5522 5519 5517 5515 5514 5512 5509 5507 5505 5503 5500 5497 5493 5490 5487 5483 5480 5478 5475
5469 5466 5463 5465 5473 5488 5511 5518 5517 5515 5518 5525 5525 5528 5528 5525 5519 5519 5522 5521 5520 5519 5518 5516 5515 5514 5513 5511 5509 5508 5505 5502 5500 5497 5496 5494 5491 5488 5484 5481 5477 5473 5471 5469
5460 5461 5460 5461 5471 5488 5515 5516 5514 5512 5510 5524 5522 5522 5520 5513 5506 5515 5519 5516 5514 5513 5511 5510 5508 5507 5505 5504 5502 5500 5497 5495 5492 5490 5489 5487 5484 5481 5478 5474 5471 5468 5465 5463
5448 5451 5455 5459 5463 5481 5502 5504 5506 5500 5511 5518 5516 5516 5512 5507 5509 5511 5510 5508 5506 5505 5504 5503 5501 5499 5497 5495 5494 5491 5489 5486 5484 5482 5481 5479 5477 5475 5471 5467 5464 5461 5459 5456
5442 5446 5449 5453 5460 5478 5491 5489 5492 5498 5505 5506 5507 5506 5504 5502 5502 5501 5501 5500 5498 5497 5496 5494 5492 5490 5488 5486 5485 5482 5480 5478 5477 5474 5473 5471 5469 5467 5464 5460 5457 5454 5451 5449
5433 5441 5443 5453 5468 5475 5476 5479 5486 5488 5491 5494 5494 5495 5495 5493 5492 5492 5491 5489 5488 5487 5486 5484 5483 5481 5479 5477 5476 5474 5472 5470 5468 5466 5464 5462 5460 5457 5455 5452 5449 5446 5443 5441
5425 5431 5432 5439 5453 5463 5468 5472 5476 5478 5480 5482 5483 5484 5485 5484 5483 5481 5480 5478 5478 5477 5476 5474 5473 5471 5470 5468 5466 5465 5463 5462 5460 5457 5455 5452 5450 5448 5445 5443 5441 5437 5435 5432
5420 5421 5424 5431 5444 5452 5461 5462 5465 5467 5468 5469 5471 5472 5472 5472 5471 5471 5469 5468 5467 5467 5465 5465 5464 5462 5461 5459 5457 5456 5454 5452 5450 5447 5445 5444 5441 5439 5436 5434 5431 5429 5428 5425
5415 5418 5422 5432 5440 5441 5449 5454 5456 5456 5457 5458 5459 5459 5460 5460 5460 5460 5459 5458 5457 5457 5455 5454 5453 5452 5451 5449 5448 5446 5445 5443 5440 5438 5436 5434 5431 5429 5427 5425 5424 5423 5421 5420